Time,TemperatureF,DewpointF,PressureIn,WindDirection,WindDirectionDegrees,WindSpeedMPH,WindSpeedGustMPH,Humidity,HourlyPrecipIn,Conditions,Clouds,dailyrainin,SoftwareType,DateUTC
2013-02-08 00:02:00,32.4,24.3,29.03,NNW,338,0.0,0.0,72,0.00,CLR,CLR,0.00,WeatherDisplay:10.37,2013-02-08 06:02:00,
2013-02-08 00:07:00,32.4,24.7,29.03,NNW,338,0.0,0.0,73,0.00,CLR,CLR,0.00,WeatherDisplay:10.37,2013-02-08 06:07:00,
2013-02-08 00:12:00,32.4,24.3,29.03,NW,315,0.0,0.0,72,0.00,CLR,CLR,0.00,WeatherDisplay:10.37,2013-02-08 06:12:00,
2013-02-08 00:17:00,32.4,24.3,29.03,NNW,338,0.0,0.0,72,0.00,CLR,CLR,0.00,WeatherDisplay:10.37,2013-02-08 06:17:00,
2013-02-08 00:22:00,32.2,24.2,29.03,North,0,0.0,0.0,72,0.00,CLR,CLR,0.00,WeatherDisplay:10.37,2013-02-08 06:22:00,
2013-02-08 00:27:00,32.2,24.2,29.03,North,0,0.0,0.0,72,0.00,CLR,CLR,0.00,WeatherDisplay:10.37,2013-02-08 06:27:00,
2013-02-08 00:32:00,32.2,24.2,29.03,North,0,0.0,0.0,72,0.00,CLR,CLR,0.00,WeatherDisplay:10.37,2013-02-08 06:32:00,
2013-02-08 00:37:00,32.2,24.2,29.03,North,0,0.0,0.0,72,0.00,CLR,CLR,0.00,WeatherDisplay:10.37,2013-02-08 06:37:00,
2013-02-08 00:42:00,32.4,24.3,29.03,NNE,22,0.0,0.0,72,0.00,CLR,CLR,0.00,WeatherDisplay:10.37,2013-02-08 06:42:00,
2013-02-08 00:47:00,32.4,24.7,29.03,NW,315,0.0,0.0,73,0.00,CLR,CLR,0.00,WeatherDisplay:10.37,2013-02-08 06:47:00,
2013-02-08 00:52:00,32.4,24.7,29.03,North,0,0.0,0.0,73,0.00,CLR,CLR,0.00,WeatherDisplay:10.37,2013-02-08 06:52:00,
2013-02-08 00:57:00,32.2,24.5,29.03,NNW,338,0.0,0.0,73,0.00,CLR,CLR,0.00,WeatherDisplay:10.37,2013-02-08 06:57:00,
2013-02-08 01:02:00,32.4,24.7,29.03,NNW,338,0.0,0.0,73,0.00,CLR,CLR,0.00,WeatherDisplay:10.37,2013-02-08 07:02:00,
2013-02-08 01:07:00,32.4,24.7,29.03,NNW,338,0.0,0.0,73,0.00,CLR,CLR,0.00,WeatherDisplay:10.37,2013-02-08 07:07:00,
2013-02-08 01:12:00,32.5,24.8,29.03,NNW,338,0.0,0.0,73,0.00,CLR,CLR,0.00,WeatherDisplay:10.37,2013-02-08 07:12:00,
2013-02-08 01:17:00,32.5,24.8,29.03,North,0,0.0,0.0,73,0.00,CLR,CLR,0.00,WeatherDisplay:10.37,2013-02-08 07:17:00,
2013-02-08 01:22:00,32.4,24.7,29.03,North,0,0.0,0.0,73,0.00,CLR,CLR,0.00,WeatherDisplay:10.37,2013-02-08 07:22:00,
2013-02-08 01:27:00,32.4,24.7,29.03,North,0,0.0,0.0,73,0.00,CLR,CLR,0.00,WeatherDisplay:10.37,2013-02-08 07:27:00,
2013-02-08 01:32:00,32.4,24.7,29.03,North,0,0.0,0.0,73,0.00,CLR,CLR,0.00,WeatherDisplay:10.37,2013-02-08 07:32:00,
2013-02-08 01:37:00,32.2,24.5,29.03,North,0,0.0,0.0,73,0.00,CLR,CLR,0.00,WeatherDisplay:10.37,2013-02-08 07:37:00,
2013-02-08 01:42:00,32.2,24.5,29.03,North,0,0.0,0.0,73,0.00,CLR,CLR,0.00,WeatherDisplay:10.37,2013-02-08 07:42:00,
2013-02-08 01:47:00,32.2,24.5,29.03,North,0,0.0,0.0,73,0.00,CLR,CLR,0.00,WeatherDisplay:10.37,2013-02-08 07:47:00,
2013-02-08 01:54:00,32.0,24.3,29.03,North,0,0.0,0.0,73,0.00,CLR,CLR,0.00,WeatherDisplay:10.37,2013-02-08 07:54:00,
2013-02-08 01:59:00,32.0,24.3,29.03,North,0,0.0,0.0,73,0.00,CLR,CLR,0.00,WeatherDisplay:10.37,2013-02-08 07:59:00,
2013-02-08 02:04:00,32.2,24.8,29.03,North,0,0.0,0.0,74,0.00,CLR,CLR,0.00,WeatherDisplay:10.37,2013-02-08 08:04:00,
2013-02-08 02:09:00,32.2,24.8,29.03,North,0,0.0,0.0,74,0.00,CLR,CLR,0.00,WeatherDisplay:10.37,2013-02-08 08:09:00,
2013-02-08 02:15:00,32.0,24.6,29.03,North,0,0.0,0.0,74,0.00,CLR,CLR,0.00,WeatherDisplay:10.37,2013-02-08 08:15:00,
2013-02-08 02:20:00,31.8,24.5,29.03,NNW,338,0.0,0.0,74,0.00,CLR,CLR,0.00,WeatherDisplay:10.37,2013-02-08 08:20:00,
2013-02-08 02:27:00,31.8,24.5,29.03,North,0,0.0,0.0,74,0.00,CLR,CLR,0.00,WeatherDisplay:10.37,2013-02-08 08:27:00,
2013-02-08 02:32:00,31.8,24.5,29.03,NNE,22,0.0,0.0,74,0.00,CLR,CLR,0.00,WeatherDisplay:10.37,2013-02-08 08:32:00,
2013-02-08 02:37:00,31.6,24.3,29.03,NNE,22,0.0,0.0,74,0.00,CLR,CLR,0.00,WeatherDisplay:10.37,2013-02-08 08:37:00,
2013-02-08 02:42:00,31.6,24.3,29.03,North,0,0.0,0.0,74,0.00,CLR,CLR,0.00,WeatherDisplay:10.37,2013-02-08 08:42:00,
2013-02-08 02:47:00,31.5,24.1,29.03,North,0,0.0,0.0,74,0.00,CLR,CLR,0.00,WeatherDisplay:10.37,2013-02-08 08:47:00,
2013-02-08 02:54:00,31.5,24.1,29.03,NNW,338,0.0,0.0,74,0.00,CLR,CLR,0.00,WeatherDisplay:10.37,2013-02-08 08:54:00,
2013-02-08 03:01:00,31.5,24.1,29.03,NNE,22,0.0,0.0,74,0.00,CLR,CLR,0.00,WeatherDisplay:10.37,2013-02-08 09:01:00,
2013-02-08 03:06:00,31.5,24.1,29.03,NNW,338,0.0,0.0,74,0.00,CLR,CLR,0.00,WeatherDisplay:10.37,2013-02-08 09:06:00,
2013-02-08 03:11:00,31.5,24.1,29.03,NNW,338,0.0,0.0,74,0.00,CLR,CLR,0.00,WeatherDisplay:10.37,2013-02-08 09:11:00,
2013-02-08 03:16:00,31.3,24.0,29.03,North,0,0.0,0.0,74,0.00,CLR,CLR,0.00,WeatherDisplay:10.37,2013-02-08 09:16:00,
2013-02-08 03:21:00,31.1,23.5,29.03,NE,45,0.0,0.0,73,0.00,CLR,CLR,0.00,WeatherDisplay:10.37,2013-02-08 09:21:00,
2013-02-08 03:26:00,30.6,22.9,29.03,NE,45,0.0,0.0,73,0.00,CLR,CLR,0.00,WeatherDisplay:10.37,2013-02-08 09:26:00,
2013-02-08 03:31:00,30.2,22.6,29.03,North,0,0.0,0.0,73,0.00,CLR,CLR,0.00,WeatherDisplay:10.37,2013-02-08 09:31:00,
2013-02-08 03:36:00,30.2,22.9,29.03,North,0,0.0,0.0,74,0.00,CLR,CLR,0.00,WeatherDisplay:10.37,2013-02-08 09:36:00,
2013-02-08 03:41:00,30.2,22.9,29.03,North,0,0.0,0.0,74,0.00,CLR,CLR,0.00,WeatherDisplay:10.37,2013-02-08 09:41:00,
2013-02-08 03:46:00,30.2,23.2,29.03,North,0,0.0,0.0,75,0.00,CLR,CLR,0.00,WeatherDisplay:10.37,2013-02-08 09:46:00,
2013-02-08 03:51:00,30.4,23.4,29.03,North,0,0.0,0.0,75,0.00,CLR,CLR,0.00,WeatherDisplay:10.37,2013-02-08 09:51:00,
2013-02-08 03:56:00,30.7,24.1,29.03,North,0,0.0,0.0,76,0.00,CLR,CLR,0.00,WeatherDisplay:10.37,2013-02-08 09:56:00,
2013-02-08 04:01:00,30.9,24.2,29.03,North,0,0.0,0.0,76,0.00,CLR,CLR,0.00,WeatherDisplay:10.37,2013-02-08 10:01:00,
2013-02-08 04:06:00,31.1,24.4,29.03,North,0,0.0,0.0,76,0.00,CLR,CLR,0.00,WeatherDisplay:10.37,2013-02-08 10:06:00,
2013-02-08 04:11:00,31.1,24.4,29.03,North,0,0.0,0.0,76,0.00,CLR,CLR,0.00,WeatherDisplay:10.37,2013-02-08 10:11:00,
2013-02-08 04:16:00,30.7,23.8,29.06,North,0,0.0,0.0,75,0.00,CLR,CLR,0.00,WeatherDisplay:10.37,2013-02-08 10:16:00,
2013-02-08 04:21:00,30.2,23.2,29.06,North,0,0.0,0.0,75,0.00,CLR,CLR,0.00,WeatherDisplay:10.37,2013-02-08 10:21:00,
2013-02-08 04:26:00,30.0,23.1,29.06,North,0,0.0,0.0,75,0.00,CLR,CLR,0.00,WeatherDisplay:10.37,2013-02-08 10:26:00,
2013-02-08 04:31:00,29.8,23.2,29.03,North,0,0.0,0.0,76,0.00,CLR,CLR,0.00,WeatherDisplay:10.37,2013-02-08 10:31:00,
2013-02-08 04:36:00,29.7,23.0,29.03,North,0,0.0,0.0,76,0.00,CLR,CLR,0.00,WeatherDisplay:10.37,2013-02-08 10:36:00,
2013-02-08 04:41:00,29.7,23.0,29.03,North,0,0.0,0.0,76,0.00,CLR,CLR,0.00,WeatherDisplay:10.37,2013-02-08 10:41:00,
2013-02-08 04:46:00,29.8,23.2,29.06,North,0,0.0,0.0,76,0.00,CLR,CLR,0.00,WeatherDisplay:10.37,2013-02-08 10:46:00,
2013-02-08 04:51:00,30.0,23.4,29.06,North,0,0.0,0.0,76,0.00,CLR,CLR,0.00,WeatherDisplay:10.37,2013-02-08 10:51:00,
2013-02-08 04:56:00,30.2,23.9,29.06,North,0,0.0,0.0,77,0.00,CLR,CLR,0.00,WeatherDisplay:10.37,2013-02-08 10:56:00,
2013-02-08 05:01:00,30.6,24.2,29.06,North,0,0.0,0.0,77,0.00,CLR,CLR,0.00,WeatherDisplay:10.37,2013-02-08 11:01:00,
2013-02-08 05:06:00,30.7,24.4,29.06,North,0,0.0,0.0,77,0.00,CLR,CLR,0.00,WeatherDisplay:10.37,2013-02-08 11:06:00,
2013-02-08 05:11:00,31.1,24.7,29.06,North,0,0.0,0.0,77,0.00,CLR,CLR,0.00,WeatherDisplay:10.37,2013-02-08 11:11:00,
2013-02-08 05:16:00,30.9,24.2,29.06,North,0,0.0,0.0,76,0.00,CLR,CLR,0.00,WeatherDisplay:10.37,2013-02-08 11:16:00,
2013-02-08 05:21:00,30.9,24.2,29.06,North,0,0.0,0.0,76,0.00,CLR,CLR,0.00,WeatherDisplay:10.37,2013-02-08 11:21:00,
2013-02-08 05:26:00,30.7,23.8,29.06,North,0,0.0,0.0,75,0.00,CLR,CLR,0.00,WeatherDisplay:10.37,2013-02-08 11:26:00,
2013-02-08 05:31:00,30.6,23.6,29.06,NNE,22,0.0,0.0,75,0.00,CLR,CLR,0.00,WeatherDisplay:10.37,2013-02-08 11:31:00,
2013-02-08 05:36:00,30.2,22.9,29.06,NNE,22,0.0,0.0,74,0.00,CLR,CLR,0.00,WeatherDisplay:10.37,2013-02-08 11:36:00,
2013-02-08 05:41:00,30.0,22.4,29.06,North,0,0.0,0.0,73,0.00,CLR,CLR,0.00,WeatherDisplay:10.37,2013-02-08 11:41:00,
2013-02-08 05:46:00,29.8,22.2,29.06,North,0,0.0,0.0,73,0.00,CLR,CLR,0.00,WeatherDisplay:10.37,2013-02-08 11:46:00,
2013-02-08 05:51:00,29.8,22.2,29.06,North,0,0.0,0.0,73,0.00,CLR,CLR,0.00,WeatherDisplay:10.37,2013-02-08 11:51:00,
2013-02-08 05:56:00,29.7,21.7,29.06,NNW,338,0.0,0.0,72,0.00,CLR,CLR,0.00,WeatherDisplay:10.37,2013-02-08 11:56:00,
2013-02-08 06:01:00,29.5,21.6,29.06,NNW,338,0.0,0.0,72,0.00,CLR,CLR,0.00,WeatherDisplay:10.37,2013-02-08 12:01:00,
2013-02-08 06:06:00,29.5,21.6,29.06,North,0,0.0,0.0,72,0.00,CLR,CLR,0.00,WeatherDisplay:10.37,2013-02-08 12:06:00,
2013-02-08 06:11:00,29.5,21.6,29.06,North,0,0.0,0.0,72,0.00,CLR,CLR,0.00,WeatherDisplay:10.37,2013-02-08 12:11:00,
2013-02-08 06:17:00,29.3,21.4,29.06,North,0,0.0,0.0,72,0.00,CLR,CLR,0.00,WeatherDisplay:10.37,2013-02-08 12:17:00,
2013-02-08 06:22:00,29.3,21.4,29.06,North,0,0.0,0.0,72,0.00,CLR,CLR,0.00,WeatherDisplay:10.37,2013-02-08 12:22:00,
2013-02-08 06:27:00,29.1,21.2,29.06,North,0,0.0,0.0,72,0.00,CLR,CLR,0.00,WeatherDisplay:10.37,2013-02-08 12:27:00,
2013-02-08 06:33:00,29.1,21.2,29.06,North,0,0.0,0.0,72,0.00,CLR,CLR,0.00,WeatherDisplay:10.37,2013-02-08 12:33:00,
2013-02-08 06:38:00,29.3,21.7,29.06,NW,315,0.0,0.0,73,0.00,CLR,CLR,0.00,WeatherDisplay:10.37,2013-02-08 12:38:00,
2013-02-08 06:43:00,29.3,21.7,29.06,NW,315,0.0,0.0,73,0.00,CLR,CLR,0.00,WeatherDisplay:10.37,2013-02-08 12:43:00,
2013-02-08 06:48:00,29.5,21.9,29.06,NW,315,0.0,0.0,73,0.00,CLR,CLR,0.00,WeatherDisplay:10.37,2013-02-08 12:48:00,
2013-02-08 06:53:00,29.5,21.9,29.06,NNE,22,0.0,0.0,73,0.00,CLR,CLR,0.00,WeatherDisplay:10.37,2013-02-08 12:53:00,
2013-02-08 06:58:00,29.5,22.2,29.06,NNE,22,0.0,0.0,74,0.00,CLR,CLR,0.00,WeatherDisplay:10.37,2013-02-08 12:58:00,
2013-02-08 07:03:00,29.5,22.2,29.06,NNE,22,0.0,0.0,74,0.00,CLR,CLR,0.00,WeatherDisplay:10.37,2013-02-08 13:03:00,
2013-02-08 07:08:00,29.5,22.2,29.06,NNE,22,0.0,0.0,74,0.00,CLR,CLR,0.00,WeatherDisplay:10.37,2013-02-08 13:08:00,
2013-02-08 07:13:00,29.5,22.5,29.06,NNE,22,0.0,0.0,75,0.00,CLR,CLR,0.00,WeatherDisplay:10.37,2013-02-08 13:13:00,
2013-02-08 07:18:00,29.7,22.7,29.06,NNE,22,0.0,0.0,75,0.00,CLR,CLR,0.00,WeatherDisplay:10.37,2013-02-08 13:18:00,
2013-02-08 07:23:00,29.8,22.9,29.06,NNE,22,0.0,0.0,75,0.00,CLR,CLR,0.00,WeatherDisplay:10.37,2013-02-08 13:23:00,
2013-02-08 07:28:00,29.8,22.9,29.06,NNE,22,0.0,0.0,75,0.00,CLR,CLR,0.00,WeatherDisplay:10.37,2013-02-08 13:28:00,
2013-02-08 07:34:00,30.2,23.5,29.06,NNE,22,0.0,0.0,76,0.00,CLR,CLR,0.00,WeatherDisplay:10.37,2013-02-08 13:34:00,
2013-02-08 07:39:00,30.2,23.5,29.06,ENE,68,0.0,0.0,76,0.00,CLR,CLR,0.00,WeatherDisplay:10.37,2013-02-08 13:39:00,
2013-02-08 07:44:00,30.4,23.7,29.06,North,0,0.0,0.0,76,0.00,CLR,CLR,0.00,WeatherDisplay:10.37,2013-02-08 13:44:00,
2013-02-08 07:49:00,30.6,23.9,29.06,North,0,0.0,0.0,76,0.00,CLR,CLR,0.00,WeatherDisplay:10.37,2013-02-08 13:49:00,
2013-02-08 07:54:00,30.7,24.4,29.06,NNE,22,0.0,0.0,77,0.00,CLR,CLR,0.00,WeatherDisplay:10.37,2013-02-08 13:54:00,
2013-02-08 07:59:00,30.9,24.6,29.06,ESE,112,0.0,0.0,77,0.00,CLR,CLR,0.00,WeatherDisplay:10.37,2013-02-08 13:59:00,
2013-02-08 08:04:00,31.1,24.7,29.06,ESE,112,0.0,0.0,77,0.00,CLR,CLR,0.00,WeatherDisplay:10.37,2013-02-08 14:04:00,
2013-02-08 08:09:00,31.3,24.9,29.06,ESE,112,0.0,0.0,77,0.00,CLR,CLR,0.00,WeatherDisplay:10.37,2013-02-08 14:09:00,
2013-02-08 08:15:00,31.5,25.1,29.09,ESE,112,0.0,0.0,77,0.00,CLR,CLR,0.00,WeatherDisplay:10.37,2013-02-08 14:15:00,
2013-02-08 08:20:00,31.6,25.3,29.09,ESE,112,0.0,0.0,77,0.00,CLR,CLR,0.00,WeatherDisplay:10.37,2013-02-08 14:20:00,
2013-02-08 08:25:00,31.6,25.3,29.09,SE,135,0.0,0.0,77,0.00,CLR,CLR,0.00,WeatherDisplay:10.37,2013-02-08 14:25:00,
2013-02-08 08:31:00,31.5,25.1,29.06,ESE,112,0.0,0.0,77,0.00,CLR,CLR,0.00,WeatherDisplay:10.37,2013-02-08 14:31:00,
2013-02-08 08:36:00,31.3,24.9,29.06,ENE,68,0.0,0.0,77,0.00,CLR,CLR,0.00,WeatherDisplay:10.37,2013-02-08 14:36:00,
2013-02-08 08:41:00,31.3,24.9,29.06,ENE,68,0.0,0.0,77,0.00,CLR,CLR,0.00,WeatherDisplay:10.37,2013-02-08 14:41:00,
2013-02-08 08:46:00,31.5,25.1,29.09,ENE,68,0.0,0.0,77,0.00,CLR,CLR,0.00,WeatherDisplay:10.37,2013-02-08 14:46:00,
2013-02-08 08:51:00,31.5,25.1,29.09,ENE,68,0.0,0.0,77,0.00,CLR,CLR,0.00,WeatherDisplay:10.37,2013-02-08 14:51:00,
2013-02-08 08:56:00,31.3,24.9,29.09,NE,45,0.0,0.0,77,0.00,CLR,CLR,0.00,WeatherDisplay:10.37,2013-02-08 14:56:00,
2013-02-08 09:01:00,31.3,24.6,29.06,NE,45,0.0,0.0,76,0.00,CLR,CLR,0.00,WeatherDisplay:10.37,2013-02-08 15:01:00,
2013-02-08 09:06:00,31.5,24.8,29.06,NE,45,0.0,0.0,76,0.00,CLR,CLR,0.00,WeatherDisplay:10.37,2013-02-08 15:06:00,
2013-02-08 09:12:00,31.5,24.8,29.06,NE,45,0.0,0.0,76,0.00,CLR,CLR,0.00,WeatherDisplay:10.37,2013-02-08 15:12:00,
2013-02-08 09:17:00,31.3,24.6,29.09,East,90,0.0,0.0,76,0.00,CLR,CLR,0.00,WeatherDisplay:10.37,2013-02-08 15:17:00,
2013-02-08 09:22:00,31.3,24.6,29.09,SE,135,0.0,0.0,76,0.00,CLR,CLR,0.00,WeatherDisplay:10.37,2013-02-08 15:22:00,
2013-02-08 09:27:00,31.1,24.4,29.09,ESE,112,0.0,0.0,76,0.00,CLR,CLR,0.00,WeatherDisplay:10.37,2013-02-08 15:27:00,
2013-02-08 09:32:00,31.3,24.6,29.06,ESE,112,0.0,0.0,76,0.00,CLR,CLR,0.00,WeatherDisplay:10.37,2013-02-08 15:32:00,
2013-02-08 09:38:00,31.3,24.3,29.06,SE,135,0.0,0.0,75,0.00,CLR,CLR,0.00,WeatherDisplay:10.37,2013-02-08 15:38:00,
2013-02-08 09:43:00,31.5,24.4,29.06,SE,135,0.0,0.0,75,0.00,CLR,CLR,0.00,WeatherDisplay:10.37,2013-02-08 15:43:00,
2013-02-08 09:48:00,31.1,24.1,29.09,SE,135,0.0,0.0,75,0.00,CLR,CLR,0.00,WeatherDisplay:10.37,2013-02-08 15:48:00,
2013-02-08 09:53:00,31.3,24.3,29.09,SSE,158,0.0,0.0,75,0.00,CLR,CLR,0.00,WeatherDisplay:10.37,2013-02-08 15:53:00,
2013-02-08 09:58:00,31.5,24.4,29.09,SE,135,0.0,0.0,75,0.00,CLR,CLR,0.00,WeatherDisplay:10.37,2013-02-08 15:58:00,
2013-02-08 10:03:00,31.3,24.3,29.09,SE,135,0.0,0.0,75,0.00,CLR,CLR,0.00,WeatherDisplay:10.37,2013-02-08 16:03:00,
2013-02-08 10:08:00,31.1,23.8,29.09,SE,135,0.0,0.0,74,0.00,CLR,CLR,0.00,WeatherDisplay:10.37,2013-02-08 16:08:00,
2013-02-08 10:13:00,31.5,24.1,29.09,SE,135,0.0,0.0,74,0.00,CLR,CLR,0.00,WeatherDisplay:10.37,2013-02-08 16:13:00,
2013-02-08 10:18:00,31.6,24.3,29.09,SE,135,0.0,0.0,74,0.00,CLR,CLR,0.00,WeatherDisplay:10.37,2013-02-08 16:18:00,
2013-02-08 10:24:00,31.5,24.1,29.09,ESE,112,0.0,0.0,74,0.00,CLR,CLR,0.00,WeatherDisplay:10.37,2013-02-08 16:24:00,
2013-02-08 10:29:00,31.5,23.8,29.09,East,90,0.0,0.0,73,0.00,CLR,CLR,0.00,WeatherDisplay:10.37,2013-02-08 16:29:00,
2013-02-08 10:34:00,31.6,24.3,29.09,ESE,112,0.0,0.0,74,0.00,CLR,CLR,0.00,WeatherDisplay:10.37,2013-02-08 16:34:00,
2013-02-08 10:39:00,31.6,24.0,29.09,East,90,3.6,0.0,73,0.00,CLR,CLR,0.00,WeatherDisplay:10.37,2013-02-08 16:39:00,
2013-02-08 10:44:00,31.3,23.6,29.09,South,180,0.0,0.0,73,0.00,CLR,CLR,0.00,WeatherDisplay:10.37,2013-02-08 16:44:00,
2013-02-08 10:49:00,31.5,23.8,29.09,ESE,112,0.0,0.0,73,0.00,CLR,CLR,0.00,WeatherDisplay:10.37,2013-02-08 16:49:00,
2013-02-08 10:54:00,31.6,23.6,29.09,SE,135,0.0,0.0,72,0.00,CLR,CLR,0.00,WeatherDisplay:10.37,2013-02-08 16:54:00,
2013-02-08 10:59:00,31.8,23.8,29.09,South,180,0.0,0.0,72,0.00,CLR,CLR,0.00,WeatherDisplay:10.37,2013-02-08 16:59:00,
2013-02-08 11:04:00,31.8,23.8,29.09,SSE,158,0.0,0.0,72,0.00,CLR,CLR,0.00,WeatherDisplay:10.37,2013-02-08 17:04:00,
2013-02-08 11:10:00,32.0,23.7,29.09,ESE,112,0.0,0.0,71,0.00,CLR,CLR,0.00,WeatherDisplay:10.37,2013-02-08 17:10:00,
2013-02-08 11:15:00,32.2,23.5,29.09,SE,135,0.0,0.0,70,0.00,CLR,CLR,0.00,WeatherDisplay:10.37,2013-02-08 17:15:00,
2013-02-08 11:21:00,32.2,23.1,29.09,SE,135,0.0,0.0,69,0.00,CLR,CLR,0.00,WeatherDisplay:10.37,2013-02-08 17:21:00,
2013-02-08 11:26:00,32.2,22.8,29.09,ESE,112,0.0,0.0,68,0.00,CLR,CLR,0.00,WeatherDisplay:10.37,2013-02-08 17:26:00,
2013-02-08 11:31:00,32.0,22.3,29.09,East,90,0.0,0.0,67,0.00,CLR,CLR,0.00,WeatherDisplay:10.37,2013-02-08 17:31:00,
2013-02-08 11:36:00,32.5,23.1,29.09,ESE,112,0.0,0.0,68,0.00,CLR,CLR,0.00,WeatherDisplay:10.37,2013-02-08 17:36:00,
2013-02-08 11:41:00,32.5,22.8,29.09,SE,135,0.0,0.0,67,0.00,CLR,CLR,0.00,WeatherDisplay:10.37,2013-02-08 17:41:00,
2013-02-08 11:46:00,32.7,22.6,29.09,SE,135,0.0,0.0,66,0.00,CLR,CLR,0.00,WeatherDisplay:10.37,2013-02-08 17:46:00,
2013-02-08 11:51:00,32.4,21.9,29.09,ESE,112,0.0,0.0,65,0.00,CLR,CLR,0.00,WeatherDisplay:10.37,2013-02-08 17:51:00,
2013-02-08 11:56:00,33.1,22.6,29.09,ESE,112,0.0,0.0,65,0.00,CLR,CLR,0.00,WeatherDisplay:10.37,2013-02-08 17:56:00,
2013-02-08 12:01:00,33.1,22.2,29.09,SE,135,0.0,0.0,64,0.00,CLR,CLR,0.00,WeatherDisplay:10.37,2013-02-08 18:01:00,
2013-02-08 12:06:00,32.7,21.1,29.09,SE,135,0.0,0.0,62,0.00,CLR,CLR,0.00,WeatherDisplay:10.37,2013-02-08 18:06:00,
2013-02-08 12:11:00,33.1,21.1,29.09,SE,135,0.0,0.0,61,0.00,CLR,CLR,0.00,WeatherDisplay:10.37,2013-02-08 18:11:00,
2013-02-08 12:16:00,33.3,20.9,29.09,SSE,158,0.0,0.0,60,0.00,CLR,CLR,0.00,WeatherDisplay:10.37,2013-02-08 18:16:00,
2013-02-08 12:21:00,33.3,20.9,29.09,SSE,158,0.0,0.0,60,0.00,CLR,CLR,0.00,WeatherDisplay:10.37,2013-02-08 18:21:00,
2013-02-08 12:26:00,33.3,20.9,29.09,East,90,0.0,0.0,60,0.00,CLR,CLR,0.00,WeatherDisplay:10.37,2013-02-08 18:26:00,
2013-02-08 12:31:00,33.4,21.0,29.06,SE,135,0.0,0.0,60,0.00,CLR,CLR,0.00,WeatherDisplay:10.37,2013-02-08 18:31:00,
2013-02-08 12:37:00,33.8,20.6,29.06,SE,135,0.0,0.0,58,0.00,CLR,CLR,0.00,WeatherDisplay:10.37,2013-02-08 18:37:00,
2013-02-08 12:42:00,33.6,20.4,29.06,SE,135,8.1,0.0,58,0.00,CLR,CLR,0.00,WeatherDisplay:10.37,2013-02-08 18:42:00,
2013-02-08 12:47:00,33.4,20.2,29.06,SSE,158,3.5,0.0,58,0.00,CLR,CLR,0.00,WeatherDisplay:10.37,2013-02-08 18:47:00,
2013-02-08 12:52:00,33.3,20.5,29.06,SE,135,0.0,0.0,59,0.00,CLR,CLR,0.00,WeatherDisplay:10.37,2013-02-08 18:52:00,
2013-02-08 12:57:00,33.8,21.0,29.06,SSE,158,2.6,0.0,59,0.00,CLR,CLR,0.00,WeatherDisplay:10.37,2013-02-08 18:57:00,
2013-02-08 13:02:00,34.3,21.1,29.06,SSE,158,4.6,4.6,58,0.00,CLR,CLR,0.00,WeatherDisplay:10.37,2013-02-08 19:02:00,
2013-02-08 13:07:00,33.6,20.0,29.06,SSE,158,3.1,0.0,57,0.00,CLR,CLR,0.00,WeatherDisplay:10.37,2013-02-08 19:07:00,
2013-02-08 13:12:00,34.2,20.9,29.06,ESE,112,4.6,0.0,58,0.00,CLR,CLR,0.00,WeatherDisplay:10.37,2013-02-08 19:12:00,
2013-02-08 13:17:00,34.3,20.7,29.06,SE,135,0.0,0.0,57,0.00,CLR,CLR,0.00,WeatherDisplay:10.37,2013-02-08 19:17:00,
2013-02-08 13:23:00,34.9,20.8,29.06,SE,135,5.9,0.0,56,0.00,CLR,CLR,0.00,WeatherDisplay:10.37,2013-02-08 19:23:00,
2013-02-08 13:28:00,35.4,20.8,29.06,East,90,4.6,0.0,55,0.00,CLR,CLR,0.00,WeatherDisplay:10.37,2013-02-08 19:28:00,
2013-02-08 13:33:00,35.1,20.5,29.03,ESE,112,3.6,0.0,55,0.00,CLR,CLR,0.00,WeatherDisplay:10.37,2013-02-08 19:33:00,
2013-02-08 13:39:00,35.1,20.5,29.03,ENE,68,5.8,0.0,55,0.00,CLR,CLR,0.00,WeatherDisplay:10.37,2013-02-08 19:39:00,
2013-02-08 13:44:00,35.6,20.6,29.03,SSE,158,2.6,0.0,54,0.00,CLR,CLR,0.00,WeatherDisplay:10.37,2013-02-08 19:44:00,
2013-02-08 13:49:00,36.1,20.6,29.03,ESE,112,2.3,0.0,53,0.00,CLR,CLR,0.00,WeatherDisplay:10.37,2013-02-08 19:49:00,
2013-02-08 13:54:00,36.5,20.5,29.03,ESE,112,4.0,0.0,52,0.00,CLR,CLR,0.00,WeatherDisplay:10.37,2013-02-08 19:54:00,
2013-02-08 13:59:00,36.3,20.4,29.03,East,90,2.3,0.0,52,0.00,CLR,CLR,0.00,WeatherDisplay:10.37,2013-02-08 19:59:00,
2013-02-08 14:04:00,36.7,20.7,29.00,ESE,112,2.3,0.0,52,0.00,CLR,CLR,0.00,WeatherDisplay:10.37,2013-02-08 20:04:00,
2013-02-08 14:09:00,36.7,20.7,29.00,ESE,112,8.7,8.7,52,0.00,CLR,CLR,0.00,WeatherDisplay:10.37,2013-02-08 20:09:00,
2013-02-08 14:14:00,36.1,20.2,29.00,SE,135,6.2,6.2,52,0.00,CLR,CLR,0.00,WeatherDisplay:10.37,2013-02-08 20:14:00,
2013-02-08 14:19:00,36.5,21.0,29.00,East,90,0.0,0.0,53,0.00,CLR,CLR,0.00,WeatherDisplay:10.37,2013-02-08 20:19:00,
2013-02-08 14:24:00,36.9,21.3,29.00,East,90,2.2,0.0,53,0.00,CLR,CLR,0.00,WeatherDisplay:10.37,2013-02-08 20:24:00,
2013-02-08 14:29:00,37.4,20.9,29.00,East,90,2.2,0.0,51,0.00,CLR,CLR,0.00,WeatherDisplay:10.37,2013-02-08 20:29:00,
2013-02-08 14:34:00,37.4,20.9,29.00,South,180,3.5,0.0,51,0.00,CLR,CLR,0.00,WeatherDisplay:10.37,2013-02-08 20:34:00,
2013-02-08 14:39:00,37.0,21.0,29.00,East,90,8.1,8.1,52,0.00,CLR,CLR,0.00,WeatherDisplay:10.37,2013-02-08 20:39:00,
2013-02-08 14:44:00,37.2,21.2,29.00,ESE,112,3.1,0.0,52,0.00,CLR,CLR,0.00,WeatherDisplay:10.37,2013-02-08 20:44:00,
2013-02-08 14:49:00,37.2,21.2,29.00,ESE,112,5.9,5.9,52,0.00,CLR,CLR,0.00,WeatherDisplay:10.37,2013-02-08 20:49:00,
2013-02-08 14:55:00,38.1,21.6,29.00,SE,135,0.0,0.0,51,0.00,CLR,CLR,0.00,WeatherDisplay:10.37,2013-02-08 20:55:00,
2013-02-08 15:00:00,37.8,20.8,29.00,SSE,158,3.5,0.0,50,0.00,CLR,CLR,0.00,WeatherDisplay:10.37,2013-02-08 21:00:00,
2013-02-08 15:05:00,38.1,21.1,29.00,SSE,158,2.3,0.0,50,0.00,CLR,CLR,0.00,WeatherDisplay:10.37,2013-02-08 21:05:00,
2013-02-08 15:11:00,38.3,21.7,29.00,ESE,112,3.1,0.0,51,0.00,CLR,CLR,0.00,WeatherDisplay:10.37,2013-02-08 21:11:00,
2013-02-08 15:16:00,38.1,21.1,28.97,ESE,112,0.0,0.0,50,0.00,CLR,CLR,0.00,WeatherDisplay:10.37,2013-02-08 21:16:00,
2013-02-08 15:21:00,38.7,21.6,28.97,ESE,112,0.0,0.0,50,0.00,CLR,CLR,0.00,WeatherDisplay:10.37,2013-02-08 21:21:00,
2013-02-08 15:26:00,38.7,21.6,28.97,ESE,112,0.0,0.0,50,0.00,CLR,CLR,0.00,WeatherDisplay:10.37,2013-02-08 21:26:00,
2013-02-08 15:31:00,38.7,21.6,28.97,ESE,112,0.0,0.0,50,0.00,CLR,CLR,0.00,WeatherDisplay:10.37,2013-02-08 21:31:00,
2013-02-08 15:36:00,38.7,21.6,28.97,ESE,112,2.6,0.0,50,0.00,CLR,CLR,0.00,WeatherDisplay:10.37,2013-02-08 21:36:00,
2013-02-08 15:41:00,38.7,22.1,28.97,ESE,112,0.0,0.0,51,0.00,CLR,CLR,0.00,WeatherDisplay:10.37,2013-02-08 21:41:00,
2013-02-08 15:46:00,38.7,22.1,28.97,East,90,3.5,0.0,51,0.00,CLR,CLR,0.00,WeatherDisplay:10.37,2013-02-08 21:46:00,
2013-02-08 15:51:00,38.5,21.9,28.97,East,90,3.5,0.0,51,0.00,CLR,CLR,0.00,WeatherDisplay:10.37,2013-02-08 21:51:00,
2013-02-08 15:56:00,38.7,22.1,28.97,SE,135,4.9,4.9,51,0.00,CLR,CLR,0.00,WeatherDisplay:10.37,2013-02-08 21:56:00,
2013-02-08 16:01:00,38.1,21.6,28.97,East,90,0.0,0.0,51,0.00,CLR,CLR,0.00,WeatherDisplay:10.37,2013-02-08 22:01:00,
2013-02-08 16:06:00,38.1,21.6,28.97,SE,135,3.5,0.0,51,0.00,CLR,CLR,0.00,WeatherDisplay:10.37,2013-02-08 22:06:00,
2013-02-08 16:11:00,38.1,21.6,28.97,SE,135,0.0,0.0,51,0.00,CLR,CLR,0.00,WeatherDisplay:10.37,2013-02-08 22:11:00,
2013-02-08 16:16:00,38.1,21.6,28.97,ESE,112,4.9,0.0,51,0.00,CLR,CLR,0.00,WeatherDisplay:10.37,2013-02-08 22:16:00,
2013-02-08 16:22:00,38.3,21.7,28.97,SE,135,4.6,0.0,51,0.00,CLR,CLR,0.00,WeatherDisplay:10.37,2013-02-08 22:22:00,
2013-02-08 16:27:00,38.1,21.6,28.97,East,90,2.6,0.0,51,0.00,CLR,CLR,0.00,WeatherDisplay:10.37,2013-02-08 22:27:00,
2013-02-08 16:32:00,38.1,21.6,28.97,East,90,0.0,0.0,51,0.00,CLR,CLR,0.00,WeatherDisplay:10.37,2013-02-08 22:32:00,
2013-02-08 16:37:00,37.9,21.4,28.97,ESE,112,15.0,15.0,51,0.00,CLR,CLR,0.00,WeatherDisplay:10.37,2013-02-08 22:37:00,
2013-02-08 16:42:00,37.8,21.7,28.97,SE,135,0.0,0.0,52,0.00,CLR,CLR,0.00,WeatherDisplay:10.37,2013-02-08 22:42:00,
2013-02-08 16:47:00,37.8,21.7,28.97,SE,135,10.4,10.4,52,0.00,CLR,CLR,0.00,WeatherDisplay:10.37,2013-02-08 22:47:00,
2013-02-08 16:52:00,37.8,21.7,28.97,ESE,112,8.1,8.1,52,0.00,CLR,CLR,0.00,WeatherDisplay:10.37,2013-02-08 22:52:00,
2013-02-08 16:57:00,37.6,21.5,28.97,SSE,158,4.6,0.0,52,0.00,CLR,CLR,0.00,WeatherDisplay:10.37,2013-02-08 22:57:00,
2013-02-08 17:02:00,37.4,21.8,28.94,SE,135,4.6,0.0,53,0.00,CLR,CLR,0.00,WeatherDisplay:10.37,2013-02-08 23:02:00,
2013-02-08 17:07:00,37.2,21.6,28.94,SSE,158,0.0,0.0,53,0.00,CLR,CLR,0.00,WeatherDisplay:10.37,2013-02-08 23:07:00,
2013-02-08 17:12:00,37.0,21.9,28.94,SE,135,0.0,0.0,54,0.00,CLR,CLR,0.00,WeatherDisplay:10.37,2013-02-08 23:12:00,
2013-02-08 17:17:00,37.0,21.9,28.94,East,90,2.6,0.0,54,0.00,CLR,CLR,0.00,WeatherDisplay:10.37,2013-02-08 23:17:00,
2013-02-08 17:22:00,36.9,22.2,28.94,East,90,2.3,0.0,55,0.00,CLR,CLR,0.00,WeatherDisplay:10.37,2013-02-08 23:22:00,
2013-02-08 17:27:00,36.9,22.2,28.94,SE,135,5.9,0.0,55,0.00,CLR,CLR,0.00,WeatherDisplay:10.37,2013-02-08 23:27:00,
2013-02-08 17:32:00,36.9,22.6,28.94,SE,135,0.0,0.0,56,0.00,CLR,CLR,0.00,WeatherDisplay:10.37,2013-02-08 23:32:00,
2013-02-08 17:37:00,36.7,22.9,28.94,ESE,112,2.3,0.0,57,0.00,CLR,CLR,0.00,WeatherDisplay:10.37,2013-02-08 23:37:00,
2013-02-08 17:42:00,36.5,22.7,28.94,ENE,68,0.0,0.0,57,0.00,CLR,CLR,0.00,WeatherDisplay:10.37,2013-02-08 23:42:00,
2013-02-08 17:48:00,36.3,22.9,28.91,SE,135,0.0,0.0,58,0.00,CLR,CLR,0.00,WeatherDisplay:10.37,2013-02-08 23:48:00,
2013-02-08 17:53:00,36.1,23.2,28.91,East,90,0.0,0.0,59,0.00,CLR,CLR,0.00,WeatherDisplay:10.37,2013-02-08 23:53:00,
2013-02-08 17:58:00,36.0,23.0,28.91,SE,135,3.5,0.0,59,0.00,CLR,CLR,0.00,WeatherDisplay:10.37,2013-02-08 23:58:00,
2013-02-08 18:03:00,36.0,23.4,28.94,SE,135,5.4,0.0,60,0.00,CLR,CLR,0.00,WeatherDisplay:10.37,2013-02-09 00:03:00,
2013-02-08 18:08:00,36.0,23.4,28.94,ESE,112,0.0,0.0,60,0.00,CLR,CLR,0.00,WeatherDisplay:10.37,2013-02-09 00:08:00,
2013-02-08 18:13:00,35.8,23.6,28.94,East,90,0.0,0.0,61,0.00,CLR,CLR,0.00,WeatherDisplay:10.37,2013-02-09 00:13:00,
2013-02-08 18:18:00,35.8,23.6,28.94,East,90,0.0,0.0,61,0.00,CLR,CLR,0.00,WeatherDisplay:10.37,2013-02-09 00:18:00,
2013-02-08 18:23:00,35.6,23.5,28.94,ESE,112,0.0,0.0,61,0.00,CLR,CLR,0.00,WeatherDisplay:10.37,2013-02-09 00:23:00,
2013-02-08 18:28:00,35.6,23.9,28.94,ESE,112,2.3,0.0,62,0.00,CLR,CLR,0.00,WeatherDisplay:10.37,2013-02-09 00:28:00,
2013-02-08 18:33:00,35.6,23.9,28.94,ESE,112,0.0,0.0,62,0.00,CLR,CLR,0.00,WeatherDisplay:10.37,2013-02-09 00:33:00,
2013-02-08 18:38:00,35.6,23.9,28.94,SE,135,0.0,0.0,62,0.00,CLR,CLR,0.00,WeatherDisplay:10.37,2013-02-09 00:38:00,
2013-02-08 18:43:00,35.6,24.2,28.94,ESE,112,3.5,0.0,63,0.00,CLR,CLR,0.00,WeatherDisplay:10.37,2013-02-09 00:43:00,
2013-02-08 18:48:00,35.4,24.1,28.94,ESE,112,2.3,0.0,63,0.00,CLR,CLR,0.00,WeatherDisplay:10.37,2013-02-09 00:48:00,
2013-02-08 18:53:00,35.2,24.3,28.94,ESE,112,3.1,0.0,64,0.00,CLR,CLR,0.00,WeatherDisplay:10.37,2013-02-09 00:53:00,
2013-02-08 18:58:00,35.2,24.3,28.94,ESE,112,4.6,0.0,64,0.00,CLR,CLR,0.00,WeatherDisplay:10.37,2013-02-09 00:58:00,
2013-02-08 19:03:00,35.2,24.6,28.94,East,90,0.0,0.0,65,0.00,CLR,CLR,0.00,WeatherDisplay:10.37,2013-02-09 01:03:00,
2013-02-08 19:08:00,35.1,24.5,28.94,East,90,0.0,0.0,65,0.00,CLR,CLR,0.00,WeatherDisplay:10.37,2013-02-09 01:08:00,
2013-02-08 19:13:00,35.1,24.5,28.94,SE,135,0.0,0.0,65,0.00,CLR,CLR,0.00,WeatherDisplay:10.37,2013-02-09 01:13:00,
2013-02-08 19:18:00,35.1,24.8,28.91,East,90,5.8,0.0,66,0.00,CLR,CLR,0.00,WeatherDisplay:10.37,2013-02-09 01:18:00,
2013-02-08 19:23:00,34.9,24.7,28.91,ESE,112,0.0,0.0,66,0.00,CLR,CLR,0.00,WeatherDisplay:10.37,2013-02-09 01:23:00,
2013-02-08 19:28:00,34.7,24.5,28.91,East,90,2.3,0.0,66,0.00,CLR,CLR,0.00,WeatherDisplay:10.37,2013-02-09 01:28:00,
2013-02-08 19:34:00,34.7,24.9,28.91,East,90,0.0,0.0,67,0.00,CLR,CLR,0.00,WeatherDisplay:10.37,2013-02-09 01:34:00,
2013-02-08 19:39:00,34.7,25.2,28.91,ESE,112,0.0,0.0,68,0.00,CLR,CLR,0.00,WeatherDisplay:10.37,2013-02-09 01:39:00,
2013-02-08 19:44:00,34.3,25.2,28.91,East,90,0.0,0.0,69,0.00,CLR,CLR,0.00,WeatherDisplay:10.37,2013-02-09 01:44:00,
2013-02-08 19:49:00,34.3,25.6,28.91,East,90,0.0,0.0,70,0.00,CLR,CLR,0.00,WeatherDisplay:10.37,2013-02-09 01:49:00,
2013-02-08 19:54:00,34.5,25.7,28.91,East,90,0.0,0.0,70,0.00,CLR,CLR,0.00,WeatherDisplay:10.37,2013-02-09 01:54:00,
2013-02-08 19:59:00,34.5,26.1,28.91,East,90,5.9,0.0,71,0.00,CLR,CLR,0.00,WeatherDisplay:10.37,2013-02-09 01:59:00,
2013-02-08 20:04:00,34.7,26.6,28.91,ENE,68,0.0,0.0,72,0.00,CLR,CLR,0.00,WeatherDisplay:10.37,2013-02-09 02:04:00,
2013-02-08 20:09:00,34.7,26.6,28.91,East,90,0.0,0.0,72,0.00,CLR,CLR,0.00,WeatherDisplay:10.37,2013-02-09 02:09:00,
2013-02-08 20:14:00,34.7,26.9,28.91,East,90,0.0,0.0,73,0.00,CLR,CLR,0.00,WeatherDisplay:10.37,2013-02-09 02:14:00,
2013-02-08 20:19:00,34.7,26.9,28.91,East,90,0.0,0.0,73,0.00,CLR,CLR,0.00,WeatherDisplay:10.37,2013-02-09 02:19:00,
2013-02-08 20:24:00,34.7,27.3,28.91,SE,135,0.0,0.0,74,0.00,CLR,CLR,0.00,WeatherDisplay:10.37,2013-02-09 02:24:00,
2013-02-08 20:29:00,34.9,27.8,28.91,East,90,0.0,0.0,75,0.00,CLR,CLR,0.00,WeatherDisplay:10.37,2013-02-09 02:29:00,
2013-02-08 20:34:00,35.1,27.9,28.91,East,90,0.0,0.0,75,0.00,CLR,CLR,0.00,WeatherDisplay:10.37,2013-02-09 02:34:00,
2013-02-08 20:39:00,35.1,28.3,28.91,ESE,112,0.0,0.0,76,0.00,CLR,CLR,0.00,WeatherDisplay:10.37,2013-02-09 02:39:00,
2013-02-08 20:44:00,35.1,28.3,28.91,East,90,0.0,0.0,76,0.00,CLR,CLR,0.00,WeatherDisplay:10.37,2013-02-09 02:44:00,
2013-02-08 20:49:00,35.2,28.8,28.91,East,90,5.8,0.0,77,0.00,CLR,CLR,0.00,WeatherDisplay:10.37,2013-02-09 02:49:00,
2013-02-08 20:54:00,35.4,28.9,28.91,ENE,68,0.0,0.0,77,0.00,CLR,CLR,0.00,WeatherDisplay:10.37,2013-02-09 02:54:00,
2013-02-08 20:59:00,35.6,29.1,28.88,East,90,3.5,0.0,77,0.00,CLR,CLR,0.00,WeatherDisplay:10.37,2013-02-09 02:59:00,
2013-02-08 21:04:00,35.8,29.3,28.88,East,90,0.0,0.0,77,0.00,CLR,CLR,0.00,WeatherDisplay:10.37,2013-02-09 03:04:00,
2013-02-08 21:09:00,35.8,29.6,28.88,East,90,0.0,0.0,78,0.00,CLR,CLR,0.00,WeatherDisplay:10.37,2013-02-09 03:09:00,
2013-02-08 21:14:00,36.0,29.8,28.88,SE,135,3.5,0.0,78,0.00,CLR,CLR,0.00,WeatherDisplay:10.37,2013-02-09 03:14:00,
2013-02-08 21:19:00,36.1,29.9,28.88,SE,135,4.5,0.0,78,0.00,CLR,CLR,0.00,WeatherDisplay:10.37,2013-02-09 03:19:00,
2013-02-08 21:24:00,36.1,29.9,28.88,East,90,0.0,0.0,78,0.00,CLR,CLR,0.00,WeatherDisplay:10.37,2013-02-09 03:24:00,
2013-02-08 21:29:00,36.1,29.9,28.88,ESE,112,0.0,0.0,78,0.00,CLR,CLR,0.00,WeatherDisplay:10.37,2013-02-09 03:29:00,
2013-02-08 21:34:00,36.1,29.9,28.88,ENE,68,0.0,0.0,78,0.00,CLR,CLR,0.00,WeatherDisplay:10.37,2013-02-09 03:34:00,
2013-02-08 21:39:00,36.1,29.6,28.88,SE,135,0.0,0.0,77,0.00,CLR,CLR,0.00,WeatherDisplay:10.37,2013-02-09 03:39:00,
2013-02-08 21:44:00,36.1,29.6,28.91,SE,135,6.9,0.0,77,0.00,CLR,CLR,0.00,WeatherDisplay:10.37,2013-02-09 03:44:00,
2013-02-08 21:49:00,36.1,29.6,28.91,East,90,0.0,0.0,77,0.00,CLR,CLR,0.00,WeatherDisplay:10.37,2013-02-09 03:49:00,
2013-02-08 21:55:00,36.1,29.3,28.91,SE,135,3.6,0.0,76,0.00,CLR,CLR,0.00,WeatherDisplay:10.37,2013-02-09 03:55:00,
2013-02-08 22:01:00,35.8,28.6,28.91,East,90,0.0,0.0,75,0.00,CLR,CLR,0.00,WeatherDisplay:10.37,2013-02-09 04:01:00,
2013-02-08 22:06:00,35.8,28.3,28.91,ENE,68,2.3,0.0,74,0.00,CLR,CLR,0.00,WeatherDisplay:10.37,2013-02-09 04:06:00,
2013-02-08 22:11:00,35.4,28.0,28.91,ESE,112,0.0,0.0,74,0.00,CLR,CLR,0.00,WeatherDisplay:10.37,2013-02-09 04:11:00,
2013-02-08 22:16:00,35.4,28.0,28.91,SE,135,4.6,0.0,74,0.00,CLR,CLR,0.00,WeatherDisplay:10.37,2013-02-09 04:16:00,
2013-02-08 22:21:00,35.6,27.8,28.91,SE,135,0.0,0.0,73,0.00,CLR,CLR,0.00,WeatherDisplay:10.37,2013-02-09 04:21:00,
2013-02-08 22:27:00,35.4,27.6,28.91,ESE,112,2.2,0.0,73,0.00,CLR,CLR,0.00,WeatherDisplay:10.37,2013-02-09 04:27:00,
2013-02-08 22:32:00,35.2,27.1,28.91,ESE,112,8.1,0.0,72,0.00,CLR,CLR,0.00,WeatherDisplay:10.37,2013-02-09 04:32:00,
2013-02-08 22:37:00,35.1,26.9,28.91,East,90,0.0,0.0,72,0.00,CLR,CLR,0.00,WeatherDisplay:10.37,2013-02-09 04:37:00,
2013-02-08 22:42:00,34.9,26.8,28.91,ESE,112,2.3,0.0,72,0.00,CLR,CLR,0.00,WeatherDisplay:10.37,2013-02-09 04:42:00,
2013-02-08 22:47:00,34.9,26.8,28.91,SE,135,0.0,0.0,72,0.00,CLR,CLR,0.00,WeatherDisplay:10.37,2013-02-09 04:47:00,
2013-02-08 22:52:00,34.9,26.8,28.91,SE,135,3.5,0.0,72,0.00,CLR,CLR,0.00,WeatherDisplay:10.37,2013-02-09 04:52:00,
2013-02-08 22:57:00,34.7,26.9,28.91,ESE,112,0.0,0.0,73,0.00,CLR,CLR,0.00,WeatherDisplay:10.37,2013-02-09 04:57:00,
2013-02-08 23:00:00,34.5,26.8,28.91,ESE,112,0.0,0.0,73,0.00,CLR,CLR,0.00,WeatherDisplay:10.37,2013-02-09 05:00:00,
2013-02-08 23:01:00,34.5,26.8,28.91,ESE,112,0.0,0.0,73,0.00,CLR,CLR,0.00,WeatherDisplay:10.37,2013-02-09 05:01:00,
2013-02-08 23:02:00,34.5,26.8,28.91,ESE,112,0.0,0.0,73,0.00,CLR,CLR,0.00,WeatherDisplay:10.37,2013-02-09 05:02:00,
2013-02-08 23:07:00,34.5,26.8,28.91,SE,135,0.0,0.0,73,0.00,CLR,CLR,0.00,WeatherDisplay:10.37,2013-02-09 05:07:00,
2013-02-08 23:12:00,34.7,27.3,28.91,East,90,2.6,0.0,74,0.00,CLR,CLR,0.00,WeatherDisplay:10.37,2013-02-09 05:12:00,
2013-02-08 23:17:00,34.5,27.1,28.91,SE,135,0.0,0.0,74,0.00,CLR,CLR,0.00,WeatherDisplay:10.37,2013-02-09 05:17:00,
2013-02-08 23:22:00,34.5,27.4,28.91,East,90,0.0,0.0,75,0.00,CLR,CLR,0.00,WeatherDisplay:10.37,2013-02-09 05:22:00,
2013-02-08 23:27:00,34.9,28.1,28.91,SE,135,0.0,0.0,76,0.00,CLR,CLR,0.00,WeatherDisplay:10.37,2013-02-09 05:27:00,
2013-02-08 23:32:00,35.2,28.4,28.91,SE,135,0.0,0.0,76,0.00,CLR,CLR,0.00,WeatherDisplay:10.37,2013-02-09 05:32:00,
2013-02-08 23:37:00,35.4,28.6,28.91,SSE,158,2.3,0.0,76,0.00,CLR,CLR,0.00,WeatherDisplay:10.37,2013-02-09 05:37:00,
2013-02-08 23:42:00,35.8,29.0,28.91,SSE,158,4.6,0.0,76,0.00,CLR,CLR,0.00,WeatherDisplay:10.37,2013-02-09 05:42:00,
2013-02-08 23:47:00,35.8,29.0,28.91,SSE,158,3.5,0.0,76,0.00,CLR,CLR,0.00,WeatherDisplay:10.37,2013-02-09 05:47:00,
2013-02-08 23:52:00,35.6,28.8,28.91,SE,135,0.0,0.0,76,0.00,CLR,CLR,0.00,WeatherDisplay:10.37,2013-02-09 05:52:00,
2013-02-08 23:57:00,35.6,29.1,28.91,ESE,112,2.6,0.0,77,0.00,CLR,CLR,0.00,WeatherDisplay:10.37,2013-02-09 05:57:00,